SCP
-0 -0 -0 0 0 0 -0 -0 -0 -0 -0 -0 -0 -0 -0 -0 -0 -0 0 0 0 0 0 0 0 0 0 0 0 0 0 0 0 0 0 0 0 0 0 0 0 1 1 1 1
-0 -0 -0 -0 -0 -0 -0 -0 -0 -0 -0 -0 -0 -0 0 0 -0 0 0 0 0 0 0 0 0 0 0 0 0 0 0 0 0 0 0 0 0 0 0 0 0 1 0 1 0
-0 -0 -0 -0 -0 -0 -0 -0 -0 -0 -0 0 0 0 0 0 -0 0 0 0 0 0 0 0 0 0 0 0 0 0 0 0 0 0 0 0 0 0 0 0 0 0 0 1 0
-0 -0 -0 -0 -0 -0 -0 0 -0 0 0 0 0 0 0 -0 0 0 0 0 0 0 0 0 0 0 0 0 0 0 0 0 0 0 0 0 0 0 0 0 0 0 0 0 0
-0 -0 -0 -0 -0 -0 -0 0 0 0 0 0 0 0 0 0 0 0 0 0 0 0 0 0 0 0 0 0 0 0 0 0 0 0 0 0 0 0 0 0 0 0 0 1 0
-0 -0 -0 -0 -0 -0 0 0 0 0 0 0 0 0 0 0 0 0 0 0 0 0 0 0 0 0 0 0 0 0 0 0 0 0 0 0 0 0 0 0 0 0 0 0 0
0 -0 -0 -0 -0 -0 -0 0 0 0 0 0 0 0 0 0 0 0 0 0 0 0 0 0 0 0 0 0 0 0 0 0 0 0 0 0 0 0 0 0 0 0 0 0 0
0 0 0 -0 -0 -0 -0 0 0 0 0 0 0 0 0 0 0 0 0 0 0 0 0 0 0 0 0 0 0 0 0 0 0 0 0 0 0 0 0 0 0 0 0 0 0
0 0 0 -0 -0 -0 -0 0 0 0 0 0 0 0 0 0 0 0 0 0 -0 0 0 0 0 0 0 0 0 0 0 0 0 0 0 0 0 0 0 0 0 0 0 0 0
0 0 0 -0 -0 -0 -0 0 0 0 0 0 0 0 0 0 0 0 0 0 0 0 0 0 0 0 0 0 0 0 0 0 0 0 -0 0 0 0 0 0 0 0 0 0 0
0 0 0 0 0 0 0 0 0 0 0 0 0 0 0 0 0 0 0 0 0 0 0 0 0 0 0 0 0 0 0 0 0 0 0 0 0 0 0 0 0 0 0 0 0
0 0 0 0 0 0 0 0 0 0 0 0 0 0 0 0 0 0 0 0 0 -0 0 0 0 0 0 0 0 0 0 0 0 0 0 0 0 0 0 0 0 0 0 0 0
0 0 0 0 0 0 0 0 0 0 0 0 0 0 0 0 0 0 0 0 0 0 0 0 0 0 0 0 0 0 0 0 0 0 0 0 0 0 0 0 0 0 0 0 0
0 0 0 0 0 0 0 0 0 0 0 0 0 0 0 0 0 0 0 0 0 0 0 0 0 0 0 0 0 0 0 0 0 0 0 0 0 0 -0 0 0 0 0 0 0
0 0 0 0 0 0 0 0 0 0 0 0 0 0 0 0 0 0 0 0 0 0 0 0 0 0 0 0 0 0 -0 0 0 0 0 0 0 0 0 0 0 0 0 0 0
0 0 0 0 0 0 0 0 0 0 0 0 0 0 0 0 0 0 0 0 0 0 0 -0 0 0 0 0 0 0 0 0 0 0 0 0 0 0 0 0 0 0 0 0 0
0 0 0 0 0 0 0 0 0 0 0 0 0 0 0 0 0 0 0 0 0 0 0 0 0 0 0 -0 0 0 -0 0 0 0 0 0 0 0 0 0 0 0 0 0 0
0 0 0 0 0 0 0 0 0 0 0 0 0 0 0 0 0 0 0 0 0 0 0 0 0 0 0 0 0 0 0 0 0 0 0 0 0 0 0 0 0 0 0 0 0
0 0 0 0 0 0 0 0 0 0 0 0 0 0 0 0 0 0 0 0 0 0 0 0 0 0 0 0 -0 -0 -0 -0 0 0 0 0 -0 0 0 0 0 0 0 0 0
0 0 0 0 0 0 0 0 0 0 0 0 0 0 0 0 0 0 0 0 0 0 0 0 0 0 0 0 -0 -0 -0 0 0 0 0 0 0 0 0 0 0 0 0 0 0
0 0 0 0 0 0 0 0 0 0 0 0 0 0 0 0 0 0 0 0 0 0 0 0 0 0 0 0 0 0 0 0 0 0 0 0 0 0 0 0 0 0 0 0 0
0 0 0 0 0 0 0 0 0 0 0 0 0 0 0 0 0 0 0 0 0 0 0 0 0 0 0 0 0 0 0 0 0 0 0 0 0 0 0 0 0 0 0 0 0
0 0 0 0 0 0 0 0 0 0 0 0 0 0 0 0 0 0 0 0 0 0 0 0 0 0 0 0 0 0 0 -0 0 0 0 0 0 -0 -0 0 0 0 0 0 0
0 0 0 0 0 0 0 0 0 0 0 0 0 0 0 0 0 0 0 0 0 0 0 0 0 0 0 -0 0 0 0 0 -0 0 0 0 -0 0 0 0 0 0 0 0 0
0 0 0 0 0 0 0 0 0 0 0 0 0 0 0 0 0 0 0 0 0 0 0 0 0 0 0 0 0 0 0 0 -0 -0 -0 0 0 0 -0 0 0 0 0 0 0
0 0 0 0 0 0 0 0 0 0 0 0 0 0 0 0 0 0 0 0 0 0 0 0 0 0 0 0 0 0 0 -0 -0 -0 -0 -0 -0 -0 0 0 0 0 0 0 0
0 0 0 0 0 0 0 0 0 0 0 0 0 0 0 0 0 0 0 0 0 0 0 0 0 0 0 0 0 0 0 0 0 0 0 0 0 0 -0 0 0 0 0 0 0
Wind_Speed_500mb
12 12 12 10 9 10 10 13 17 23 30 37 42 45 44 43 43 18 10 8 17 28 29 23 20 15 14 18 19 15 16 31 43 40 39 36 31 25 39 29 20 23 7 12 53
14 17 16 18 17 18 19 17 21 25 28 35 42 44 43 41 27 9 11 11 22 26 24 19 17 14 20 17 14 24 25 38 34 28 24 39 14 27 34 41 26 19 8 29 50
18 19 20 22 24 24 24 23 26 28 28 33 38 41 40 36 15 4 15 22 28 26 21 20 17 16 24 23 27 19 36 31 27 18 20 30 21 17 21 31 43 36 27 40 44
19 18 21 26 28 29 27 25 27 31 32 32 37 39 39 18 16 11 26 24 27 25 21 18 19 23 21 26 26 33 35 35 34 25 17 29 26 27 30 33 11 9 11 40 43
19 20 22 25 28 31 31 29 29 32 33 33 37 38 33 20 10 19 28 29 25 23 18 23 26 24 26 19 24 30 34 31 27 34 39 41 41 38 36 26 23 17 8 31 37
21 22 23 24 27 30 34 33 32 34 36 37 37 36 21 26 20 27 41 30 23 22 18 21 25 28 28 30 25 24 17 31 36 38 41 38 43 45 40 41 29 10 15 29 42
22 25 26 28 25 27 32 33 34 35 37 38 35 28 19 16 22 30 27 23 20 18 18 19 29 15 13 24 26 28 29 31 36 36 27 32 38 52 58 47 38 30 20 27 37
26 27 28 31 28 25 27 30 32 34 35 36 31 15 13 17 24 21 18 15 15 16 14 13 10 24 25 24 25 25 25 27 22 20 42 25 38 40 54 61 52 52 36 24 34
30 30 31 32 33 27 24 26 30 32 35 32 19 6 9 18 11 21 15 16 20 11 10 5 4 17 16 14 18 18 22 19 19 16 20 31 31 29 48 39 49 53 54 32 28
33 36 38 35 33 30 23 24 27 28 22 15 14 10 12 10 17 19 13 14 16 17 9 5 7 10 12 6 7 9 15 15 18 15 19 30 37 30 24 26 40 44 56 45 33
33 37 42 41 31 27 21 20 12 6 9 15 18 19 11 12 18 5 9 12 15 18 15 3 10 17 23 19 18 21 20 24 27 29 28 33 35 35 38 42 40 42 51 40 42
31 36 42 36 25 20 19 11 9 15 22 23 25 25 21 13 10 8 6 7 7 20 11 16 22 22 17 19 24 29 28 29 31 37 34 32 37 35 33 42 45 47 44 41 41
30 34 39 28 17 13 13 9 16 17 15 9 12 12 8 6 10 6 4 5 14 21 23 25 22 5 13 21 24 29 33 27 24 27 39 39 44 43 42 45 40 52 49 41 40
27 30 34 21 8 10 6 11 17 11 8 8 7 5 5 5 7 8 4 7 5 15 20 20 16 18 21 26 22 29 22 30 25 19 15 10 13 21 28 37 39 52 48 44 34
26 28 30 14 10 5 9 10 11 8 9 6 5 6 6 11 12 8 7 8 15 19 3 10 16 19 18 16 19 15 21 24 25 26 24 29 15 13 12 30 35 37 50 41 32
23 25 26 12 8 8 5 9 7 5 10 3 2 5 10 16 7 1 7 7 9 13 17 35 33 18 23 15 16 16 12 22 18 8 12 28 22 19 21 20 23 32 48 39 33
21 22 22 10 8 5 4 3 3 6 2 2 6 6 16 11 8 8 9 13 8 7 6 19 26 12 24 26 3 7 8 7 11 12 9 5 15 28 29 14 9 21 42 38 33
22 22 16 13 9 4 3 6 7 7 10 4 7 15 14 4 9 7 10 13 16 18 12 10 7 11 16 8 6 7 9 6 7 6 11 6 10 9 9 9 3 5 5 26 36
22 21 16 15 10 8 8 6 8 4 5 13 23 10 11 9 10 6 12 12 3 19 9 10 5 3 13 9 13 5 13 15 14 0 6 10 16 18 15 9 3 7 13 17 33
22 15 15 15 15 11 9 10 9 5 2 3 11 2 18 13 9 4 8 7 3 10 16 7 14 6 2 8 24 19 6 9 8 7 8 5 8 8 5 4 2 8 19 22 25
15 10 14 18 19 10 8 13 10 12 13 8 12 15 17 17 13 13 9 6 4 7 14 12 8 2 4 10 12 8 12 13 8 10 8 11 3 10 14 9 8 2 15 22 27
6 9 9 25 13 12 13 9 4 9 10 15 9 22 21 19 17 12 11 5 4 7 5 11 10 12 21 4 6 12 15 17 6 7 5 6 10 11 9 8 1 10 16 25 28
10 15 14 31 10 17 17 12 12 13 14 12 9 17 7 11 12 14 12 3 7 7 5 5 10 11 5 7 5 10 17 23 15 14 17 9 8 5 8 12 13 17 22 31 31
8 7 8 23 32 17 23 21 16 13 17 13 10 10 13 19 22 16 9 2 8 13 4 4 14 19 20 31 16 15 13 17 25 8 8 16 26 15 6 13 14 19 25 33 33
16 15 15 9 20 36 22 12 16 10 14 19 9 22 15 11 13 16 13 12 11 4 7 7 15 21 30 36 30 30 28 21 29 32 13 4 11 12 8 14 17 22 27 33 30
17 16 13 30 20 22 26 15 26 26 13 15 21 7 23 22 17 21 11 8 7 8 8 5 9 21 15 10 11 22 21 25 27 30 31 36 33 3 17 20 20 24 28 30 29
48 24 9 22 26 24 28 29 19 12 23 23 22 14 18 31 33 31 27 25 11 7 6 7 8 11 10 12 16 13 5 17 9 12 18 21 15 23 21 19 24 27 28 30 28
Wind_Direction_500mb
295 294 290 286 294 307 317 329 1 11 11 10 8 3 358 352 346 351 3 298 329 329 329 309 309 295 279 260 243 254 246 242 245 249 246 261 249 229 251 283 211 191 301 107 166
287 281 281 276 281 288 297 315 343 358 4 4 4 358 350 345 346 8 309 315 327 328 326 299 301 292 266 255 234 227 242 249 263 273 289 257 235 254 231 238 207 199 190 147 175
290 280 277 275 274 283 296 317 335 344 354 357 353 350 344 342 316 1 330 314 314 317 309 292 273 280 264 247 241 246 248 276 254 287 286 292 291 245 261 247 226 219 191 166 178
288 285 281 279 277 279 292 308 319 328 338 344 343 342 341 358 332 306 326 321 319 312 302 283 258 251 262 246 239 256 262 261 277 262 280 274 283 283 249 252 324 335 167 179 186
308 297 286 283 281 283 286 296 307 314 322 332 333 336 346 315 323 312 334 319 320 315 297 267 253 254 255 266 260 249 263 266 259 260 261 266 263 264 267 257 282 288 216 198 200
317 308 301 295 292 291 288 291 297 302 309 319 324 332 323 307 304 319 320 318 318 321 298 276 240 247 271 272 249 275 267 271 262 258 260 260 261 258 251 247 246 258 224 213 209
327 319 316 309 305 300 293 291 294 295 301 310 317 330 301 296 322 324 321 315 313 318 305 308 239 260 291 256 264 263 273 261 246 245 244 249 254 251 249 257 254 252 234 219 210
339 336 328 317 310 307 303 298 292 293 298 304 308 319 280 293 325 341 337 333 322 311 310 295 274 256 269 284 279 258 258 265 255 235 239 234 258 248 244 238 245 246 232 222 211
336 335 333 328 316 307 306 303 299 297 297 298 302 269 272 314 335 325 334 324 321 313 324 292 250 247 273 298 282 253 264 264 300 204 256 213 258 252 251 236 236 243 239 219 216
336 335 332 328 320 311 310 312 309 304 301 294 271 261 238 296 309 321 323 311 313 313 270 266 236 256 255 162 267 297 279 279 288 301 233 251 252 260 252 264 234 242 235 221 214
335 335 335 332 323 319 327 347 337 293 294 251 296 279 305 302 312 296 289 307 292 277 281 269 260 256 275 282 286 278 268 286 279 283 281 274 264 257 247 245 246 242 234 225 217
336 337 340 341 337 334 344 11 340 305 299 265 262 263 265 283 283 262 278 265 302 295 286 259 258 266 307 290 272 271 274 269 265 265 269 267 270 263 250 241 239 237 232 228 222
335 339 346 345 345 353 14 339 319 322 274 256 242 254 245 236 275 264 228 286 284 289 279 272 279 214 273 286 277 268 256 254 263 289 277 269 271 257 243 238 231 232 231 235 225
334 339 347 345 1 1 27 337 330 341 285 199 216 231 223 240 257 206 246 260 254 300 323 283 312 278 266 261 264 275 265 263 263 267 258 325 283 309 211 218 220 221 213 220 223
329 335 343 347 306 335 317 339 354 11 311 122 175 240 237 238 329 170 215 216 274 286 338 277 295 265 262 269 287 269 310 268 251 254 275 269 261 275 217 220 216 215 214 212 214
322 328 335 334 306 286 332 349 27 257 257 201 178 267 258 208 226 261 232 224 277 285 246 260 282 283 264 271 241 264 272 270 251 238 238 244 238 274 245 226 231 211 209 201 203
313 321 322 279 244 296 21 28 304 245 141 163 294 241 285 261 225 202 231 222 242 302 281 316 233 236 250 259 25 201 264 176 204 208 254 128 235 254 309 321 319 309 190 193 184
307 313 305 255 240 203 103 237 247 295 297 20 292 279 263 293 201 218 278 280 201 230 299 319 325 213 161 240 255 199 260 297 255 209 213 120 234 240 317 28 320 345 41 169 175
304 309 288 251 215 169 244 252 242 274 5 318 307 271 238 227 274 247 231 293 302 194 263 313 272 198 227 218 165 197 228 312 315 62 280 208 222 246 209 195 206 186 170 195 169
306 301 253 234 191 160 240 249 253 221 250 275 287 247 299 328 269 237 301 143 231 221 234 312 292 186 71 252 229 239 331 278 234 283 266 241 286 283 29 299 88 220 172 157 155
308 275 259 200 171 207 228 237 268 252 218 209 285 284 278 301 276 291 283 204 202 179 229 289 261 191 208 217 268 231 248 236 293 266 294 303 86 20 344 336 295 184 153 148 157
262 248 245 173 202 224 231 220 257 240 211 238 271 267 269 297 283 276 259 270 157 178 232 211 290 283 280 91 269 280 263 263 254 300 322 332 297 24 355 12 85 128 138 132 144
252 266 219 180 239 225 248 259 249 222 216 200 218 239 299 274 283 245 282 68 192 219 289 150 243 294 220 162 214 246 238 234 276 286 273 300 313 70 108 84 96 124 129 125 131
260 240 208 211 252 277 264 262 247 222 245 224 246 234 253 262 246 276 273 216 199 228 237 265 259 258 282 300 305 261 231 244 225 243 251 229 277 14 96 106 113 133 132 127 130
212 242 240 200 239 235 247 273 232 241 225 209 236 223 224 269 259 245 255 263 206 194 216 251 275 275 274 277 280 274 265 234 222 236 261 247 292 8 131 129 137 135 129 127 129
222 224 229 265 258 229 215 239 240 246 221 217 231 221 226 244 251 299 280 243 295 163 233 200 276 306 287 289 291 260 260 249 238 242 251 264 281 261 133 132 146 143 139 131 129
219 232 250 260 236 238 230 238 255 233 230 248 218 233 232 256 273 278 275 268 271 271 260 254 295 313 279 325 305 266 297 231 237 263 251 259 257 150 149 144 142 142 143 138 135
Wind_Speed_850mb
12 12 12 10 9 10 10 13 17 23 30 37 42 45 44 43 43 18 10 8 17 28 29 23 20 15 14 18 19 15 16 31 43 40 39 36 31 25 39 29 20 23 7 12 53
14 17 16 18 17 18 19 17 21 25 28 35 42 44 43 41 27 9 11 11 22 26 24 19 17 14 20 17 14 24 25 38 34 28 24 39 14 27 34 41 26 19 8 29 50
18 19 20 22 24 24 24 23 26 28 28 33 38 41 40 36 15 4 15 22 28 26 21 20 17 16 24 23 27 19 36 31 27 18 20 30 21 17 21 31 43 36 27 40 44
19 18 21 26 28 29 27 25 27 31 32 32 37 39 39 18 16 11 26 24 27 25 21 18 19 23 21 26 26 33 35 35 34 25 17 29 26 27 30 33 11 9 11 40 43
19 20 22 25 28 31 31 29 29 32 33 33 37 38 33 20 10 19 28 29 25 23 18 23 26 24 26 19 24 30 34 31 27 34 39 41 41 38 36 26 23 17 8 31 37
21 22 23 24 27 30 34 33 32 34 36 37 37 36 21 26 20 27 41 30 23 22 18 21 25 28 28 30 25 24 17 31 36 38 41 38 43 45 40 41 29 10 15 29 42
22 25 26 28 25 27 32 33 34 35 37 38 35 28 19 16 22 30 27 23 20 18 18 19 29 15 13 24 26 28 29 31 36 36 27 32 38 52 58 47 38 30 20 27 37
26 27 28 31 28 25 27 30 32 34 35 36 31 15 13 17 24 21 18 15 15 16 14 13 10 24 25 24 25 25 25 27 22 20 42 25 38 40 54 61 52 52 36 24 34
30 30 31 32 33 27 24 26 30 32 35 32 19 6 9 18 11 21 15 16 20 11 10 5 4 17 16 14 18 18 22 19 19 16 20 31 31 29 48 39 49 53 54 32 28
33 36 38 35 33 30 23 24 27 28 22 15 14 10 12 10 17 19 13 14 16 17 9 5 7 10 12 6 7 9 15 15 18 15 19 30 37 30 24 26 40 44 56 45 33
33 37 42 41 31 27 21 20 12 6 9 15 18 19 11 12 18 5 9 12 15 18 15 3 10 17 23 19 18 21 20 24 27 29 28 33 35 35 38 42 40 42 51 40 42
31 36 42 36 25 20 19 11 9 15 22 23 25 25 21 13 10 8 6 7 7 20 11 16 22 22 17 19 24 29 28 29 31 37 34 32 37 35 33 42 45 47 44 41 41
30 34 39 28 17 13 13 9 16 17 15 9 12 12 8 6 10 6 4 5 14 21 23 25 22 5 13 21 24 29 33 27 24 27 39 39 44 43 42 45 40 52 49 41 40
27 30 34 21 8 10 6 11 17 11 8 8 7 5 5 5 7 8 4 7 5 15 20 20 16 18 21 26 22 29 22 30 25 19 15 10 13 21 28 37 39 52 48 44 34
26 28 30 14 10 5 9 10 11 8 9 6 5 6 6 11 12 8 7 8 15 19 3 10 16 19 18 16 19 15 21 24 25 26 24 29 15 13 12 30 35 37 50 41 32
23 25 26 12 8 8 5 9 7 5 10 3 2 5 10 16 7 1 7 7 9 13 17 35 33 18 23 15 16 16 12 22 18 8 12 28 22 19 21 20 23 32 48 39 33
21 22 22 10 8 5 4 3 3 6 2 2 6 6 16 11 8 8 9 13 8 7 6 19 26 12 24 26 3 7 8 7 11 12 9 5 15 28 29 14 9 21 42 38 33
22 22 16 13 9 4 3 6 7 7 10 4 7 15 14 4 9 7 10 13 16 18 12 10 7 11 16 8 6 7 9 6 7 6 11 6 10 9 9 9 3 5 5 26 36
22 21 16 15 10 8 8 6 8 4 5 13 23 10 11 9 10 6 12 12 3 19 9 10 5 3 13 9 13 5 13 15 14 0 6 10 16 18 15 9 3 7 13 17 33
22 15 15 15 15 11 9 10 9 5 2 3 11 2 18 13 9 4 8 7 3 10 16 7 14 6 2 8 24 19 6 9 8 7 8 5 8 8 5 4 2 8 19 22 25
15 10 14 18 19 10 8 13 10 12 13 8 12 15 17 17 13 13 9 6 4 7 14 12 8 2 4 10 12 8 12 13 8 10 8 11 3 10 14 9 8 2 15 22 27
6 9 9 25 13 12 13 9 4 9 10 15 9 22 21 19 17 12 11 5 4 7 5 11 10 12 21 4 6 12 15 17 6 7 5 6 10 11 9 8 1 10 16 25 28
10 15 14 31 10 17 17 12 12 13 14 12 9 17 7 11 12 14 12 3 7 7 5 5 10 11 5 7 5 10 17 23 15 14 17 9 8 5 8 12 13 17 22 31 31
8 7 8 23 32 17 23 21 16 13 17 13 10 10 13 19 22 16 9 2 8 13 4 4 14 19 20 31 16 15 13 17 25 8 8 16 26 15 6 13 14 19 25 33 33
16 15 15 9 20 36 22 12 16 10 14 19 9 22 15 11 13 16 13 12 11 4 7 7 15 21 30 36 30 30 28 21 29 32 13 4 11 12 8 14 17 22 27 33 30
17 16 13 30 20 22 26 15 26 26 13 15 21 7 23 22 17 21 11 8 7 8 8 5 9 21 15 10 11 22 21 25 27 30 31 36 33 3 17 20 20 24 28 30 29
48 24 9 22 26 24 28 29 19 12 23 23 22 14 18 31 33 31 27 25 11 7 6 7 8 11 10 12 16 13 5 17 9 12 18 21 15 23 21 19 24 27 28 30 28
Wind_Direction_850mb
295 294 290 286 294 307 317 329 1 11 11 10 8 3 358 352 346 351 3 298 329 329 329 309 309 295 279 260 243 254 246 242 245 249 246 261 249 229 251 283 211 191 301 107 166
287 281 281 276 281 288 297 315 343 358 4 4 4 358 350 345 346 8 309 315 327 328 326 299 301 292 266 255 234 227 242 249 263 273 289 257 235 254 231 238 207 199 190 147 175
290 280 277 275 274 283 296 317 335 344 354 357 353 350 344 342 316 1 330 314 314 317 309 292 273 280 264 247 241 246 248 276 254 287 286 292 291 245 261 247 226 219 191 166 178
288 285 281 279 277 279 292 308 319 328 338 344 343 342 341 358 332 306 326 321 319 312 302 283 258 251 262 246 239 256 262 261 277 262 280 274 283 283 249 252 324 335 167 179 186
308 297 286 283 281 283 286 296 307 314 322 332 333 336 346 315 323 312 334 319 320 315 297 267 253 254 255 266 260 249 263 266 259 260 261 266 263 264 267 257 282 288 216 198 200
317 308 301 295 292 291 288 291 297 302 309 319 324 332 323 307 304 319 320 318 318 321 298 276 240 247 271 272 249 275 267 271 262 258 260 260 261 258 251 247 246 258 224 213 209
327 319 316 309 305 300 293 291 294 295 301 310 317 330 301 296 322 324 321 315 313 318 305 308 239 260 291 256 264 263 273 261 246 245 244 249 254 251 249 257 254 252 234 219 210
339 336 328 317 310 307 303 298 292 293 298 304 308 319 280 293 325 341 337 333 322 311 310 295 274 256 269 284 279 258 258 265 255 235 239 234 258 248 244 238 245 246 232 222 211
336 335 333 328 316 307 306 303 299 297 297 298 302 269 272 314 335 325 334 324 321 313 324 292 250 247 273 298 282 253 264 264 300 204 256 213 258 252 251 236 236 243 239 219 216
336 335 332 328 320 311 310 312 309 304 301 294 271 261 238 296 309 321 323 311 313 313 270 266 236 256 255 162 267 297 279 279 288 301 233 251 252 260 252 264 234 242 235 221 214
335 335 335 332 323 319 327 347 337 293 294 251 296 279 305 302 312 296 289 307 292 277 281 269 260 256 275 282 286 278 268 286 279 283 281 274 264 257 247 245 246 242 234 225 217
336 337 340 341 337 334 344 11 340 305 299 265 262 263 265 283 283 262 278 265 302 295 286 259 258 266 307 290 272 271 274 269 265 265 269 267 270 263 250 241 239 237 232 228 222
335 339 346 345 345 353 14 339 319 322 274 256 242 254 245 236 275 264 228 286 284 289 279 272 279 214 273 286 277 268 256 254 263 289 277 269 271 257 243 238 231 232 231 235 225
334 339 347 345 1 1 27 337 330 341 285 199 216 231 223 240 257 206 246 260 254 300 323 283 312 278 266 261 264 275 265 263 263 267 258 325 283 309 211 218 220 221 213 220 223
329 335 343 347 306 335 317 339 354 11 311 122 175 240 237 238 329 170 215 216 274 286 338 277 295 265 262 269 287 269 310 268 251 254 275 269 261 275 217 220 216 215 214 212 214
322 328 335 334 306 286 332 349 27 257 257 201 178 267 258 208 226 261 232 224 277 285 246 260 282 283 264 271 241 264 272 270 251 238 238 244 238 274 245 226 231 211 209 201 203
313 321 322 279 244 296 21 28 304 245 141 163 294 241 285 261 225 202 231 222 242 302 281 316 233 236 250 259 25 201 264 176 204 208 254 128 235 254 309 321 319 309 190 193 184
307 313 305 255 240 203 103 237 247 295 297 20 292 279 263 293 201 218 278 280 201 230 299 319 325 213 161 240 255 199 260 297 255 209 213 120 234 240 317 28 320 345 41 169 175
304 309 288 251 215 169 244 252 242 274 5 318 307 271 238 227 274 247 231 293 302 194 263 313 272 198 227 218 165 197 228 312 315 62 280 208 222 246 209 195 206 186 170 195 169
306 301 253 234 191 160 240 249 253 221 250 275 287 247 299 328 269 237 301 143 231 221 234 312 292 186 71 252 229 239 331 278 234 283 266 241 286 283 29 299 88 220 172 157 155
308 275 259 200 171 207 228 237 268 252 218 209 285 284 278 301 276 291 283 204 202 179 229 289 261 191 208 217 268 231 248 236 293 266 294 303 86 20 344 336 295 184 153 148 157
262 248 245 173 202 224 231 220 257 240 211 238 271 267 269 297 283 276 259 270 157 178 232 211 290 283 280 91 269 280 263 263 254 300 322 332 297 24 355 12 85 128 138 132 144
252 266 219 180 239 225 248 259 249 222 216 200 218 239 299 274 283 245 282 68 192 219 289 150 243 294 220 162 214 246 238 234 276 286 273 300 313 70 108 84 96 124 129 125 131
260 240 208 211 252 277 264 262 247 222 245 224 246 234 253 262 246 276 273 216 199 228 237 265 259 258 282 300 305 261 231 244 225 243 251 229 277 14 96 106 113 133 132 127 130
212 242 240 200 239 235 247 273 232 241 225 209 236 223 224 269 259 245 255 263 206 194 216 251 275 275 274 277 280 274 265 234 222 236 261 247 292 8 131 129 137 135 129 127 129
222 224 229 265 258 229 215 239 240 246 221 217 231 221 226 244 251 299 280 243 295 163 233 200 276 306 287 289 291 260 260 249 238 242 251 264 281 261 133 132 146 143 139 131 129
219 232 250 260 236 238 230 238 255 233 230 248 218 233 232 256 273 278 275 268 271 271 260 254 295 313 279 325 305 266 297 231 237 263 251 259 257 150 149 144 142 142 143 138 135